CZ-6A DEB, 54290

Orbit data source: Space-Track

CZ-6A DEB, 54290 is space debris in SSO originally from a launch on Fri, 11 Nov 2022 UTC launched from the Taiyaun Space Center, China (TSC). Debris objects in space refer to the collection of defunct objects orbiting the Earth. Examples of debris include non-operational satellites, rocket bodies, and fragments generated from explosions, collisions, or faulty payload assembly.

Loading next visibility...
Identifier
54290, 2022-151AH
Orbit
SSO
Country
Flag of CNCN / PRC
Related business
Manufacturer
SAST
Mission
Spacecraft
Bus & Motor
Unknown
Mass
Unknown
Launch date (UTC)
2022-11-11 (4 years ago)
Launch vehicle
Unknown
Launch site
Taiyaun Space Center, China (TSC)
Object type
Payload
Rocket body
Debris
Shape & HBR
Unknown shape, 0.1 m
Radar Cross Section
Medium (>0.1 m² and <1 m²)

Expand to show TLE details & history
Last TLE update: 12 hours ago

TLE from 12 hours ago
0 CZ-6A DEB
1 54290U 22151AH  26235.98544331  .00000259  00000-0  10445-3 0  9999
2 54290  98.5776 242.6646 0123369 214.2713 145.0466 14.32004793196913
Epoch: 2026-08-23T23:39Z
TLE epoch observation values (Epoch: 2026-08-23T23:39:02.301Z)
Latitude
-0.00003°
Longitude
-84.36863°
Altitude
860.77 km
Speed
7.384 km/s
True Right ascension
16h 10m 39s
True Declination
0° 00' 00"
Sunlit
Object was in daylight at epoch
Visualization orbit readout
Latitude
Unknown
Longitude
Unknown
Altitude
Unknown
Speed
Unknown
Apparent Right ascension
Unknown
Apparent Declination
Unknown
Sunlit
N/A
Visualization observer readout
Local Sidereal Time
02:50:59
Azimuth
Unknown
Elevation
Unknown
Doppler factor
Unknown
Orbital elements
Apogee altitude
870.509 km
Perigee altitude
693.837 km
Semi-major axis
7,160.31 km
Eccentricity
0.01234
Inclination
98.5776°
RAAN
242.6646°
Arg. of periapsis
214.2713°
True anomaly
145.84639°
Mean anomaly
145.0466°
Eccentric anomaly
145.4475°
Mean motion
3.58216 °/min
Orbital period
100.5 mins
BSTAR
0.00010445
Loading maneuver chart data...
Computing Atmospheric mass density...
Loading historical data...
Loading historical data...
Loading historical data...
Loading historical data...
Loading historical data...
Loading historical data...
Loading historical data...

Documentation

Showing up to 5 results
|